Weather Service Report


306 
ASUS43 KDMX 251406
RWRIA 

WEATHER ROUNDUP FOR IOWA
NATIONAL WEATHER SERVICE DES MOINES IA
900 AM CDT THU MAY 25 2017

NOTE: "FAIR" INDICATES FEW OR NO CLOUDS BELOW 12,000 FEET WITH NO
SIGNIFICANT WEATHER AND/OR OBSTRUCTIONS TO VISIBILITY.

* - THESE STATIONS ARE NOT NWS STATIONS...THUS NOT UNDER NWS
QUALITY CONTROL.  THEY ALSO DO NOT REPORT WEATHER SUCH 
AS PRECIPITATION OR FOG.  

IAZ001>003-012>014-020>022-031>034-043>046-251500-
   NORTHWEST IOWA
  
CITY           SKY/WX    TMP DP  RH WIND       PRES   REMARKS
CARROLL *      SUNNY     61  52  72 S12       29.69S                  
CHEROKEE *     SUNNY     58  51  78 S9G17     29.69R                  
DENISON *      SUNNY     59  50  72 S15       29.69S                  
LE MARS *      SUNNY     61  50  67 S16G24    29.64F                  
ORANGE CITY *  SUNNY     57  52  82 S13G21    29.65F                  
SHELDON *      SUNNY     59  50  72 S22       29.64F                  
SIOUX CITY     MOSUNNY   58  51  78 SE12G22   29.63F                  
SPENCER        PTSUNNY   58  50  75 S16       29.69R                  
STORM LAKE *   SUNNY     57  48  72 S17       29.69R                  
$$
 
IAZ055>058-069>071-079>083-090>094-251500-
   SOUTHWEST IOWA
  
CITY           SKY/WX    TMP DP  RH WIND       PRES   REMARKS
ATLANTIC *     SUNNY     59  50  72 S12       29.69F                  
AUDUBON *      SUNNY     57  52  82 S9        29.70S                  
CLARINDA *     SUNNY     61  52  72 S10       29.72R                  
COUNCIL BLFS * MOSUNNY   57  52  82 S13       29.68R                  
CRESTON *      SUNNY     57  52  82 S10       29.72R                  
HARLAN  *      SUNNY     59  52  77 S13       29.71S                  
LAMONI         SUNNY     58  51  78 S6        29.71S                  
RED OAK *      SUNNY     61  50  67 S13       29.70R                  
SHENANDOAH *   SUNNY     61  50  67 S12G18    29.70R                  
$$
 
IAZ047>049-059>061-072>074-084-251500-
   CENTRAL IOWA
  
CITY           SKY/WX    TMP DP  RH WIND       PRES   REMARKS
AMES           SUNNY     57  51  80 SE8       29.71R                  
ANKENY *       SUNNY     57  50  77 SE6       29.72F                  
BOONE *        SUNNY     57  54  88 SE12      29.70S                  
CHARITON *     SUNNY     57  50  77 SE5       29.72S                  
DES MOINES     MOSUNNY   58  49  72 E8        29.71S                  
GRINNELL*      SUNNY     56  51  82 E5        29.73S                  
KNOXVILLE *    SUNNY     57  50  77 S5        29.71S                  
MARSHALLTOWN   SUNNY     56  52  86 SE7       29.71S                  
NEWTON *       SUNNY     57  52  82 S5        29.71S                  
PELLA *        SUNNY     59  51  73 SE3       29.73S                  
PERRY *          N/A     58  53  83 S10       29.71R                  
$$
 
IAZ004>006-015-016-023>025-035-036-251500-
   NORTH CENTRAL IOWA
  
CITY           SKY/WX    TMP DP  RH WIND       PRES   REMARKS
ALGONA *       SUNNY     59  54  82 S13       29.71R                  
CLARION *      SUNNY     59  52  77 SE9       29.71S                  
ESTHERVILLE    SUNNY     56  53  90 S12       29.70R                  
FORT DODGE *   SUNNY     59  52  77 S6        29.72R                  
MASON CITY     MOSUNNY   55  50  83 SE8       29.73R                  
FOREST CITY *    N/A     59  45  58 SE8       29.72S                  
WEBSTER CITY * SUNNY     57  50  77 SE9       29.69R                  
IOWA FALLS *     N/A     57  52  84 E7        29.73R                  
$$

IAZ007>011-017>019-026>030-037>042-050>054-066-251500-
   NORTHEAST IOWA
  
CITY           SKY/WX    TMP DP  RH WIND       PRES   REMARKS
CEDAR RAPIDS   MOSUNNY   55  52  89 VRB3      29.71R                  
CHARLES CITY * MOSUNNY   55  52  88 CALM      29.74R                  
CLINTON *      CLOUDY    54  52  93 NW9       29.70R                  
DECORAH *      CLOUDY    52  48  87 NE3       29.72R                  
DUBUQUE        CLOUDY    53  50  89 N9        29.70R                  
MONTICELLO *   CLOUDY    55  50  82 N9        29.70S                  
OELWEIN *      CLOUDY    52  52 100 CALM      29.73R                  
WATERLOO       MOSUNNY   56  50  80 CALM      29.72R                  
$$
 
IAZ064-065-067-068-078-251500-
   EAST CENTRAL IOWA
  
CITY           SKY/WX    TMP DP  RH WIND       PRES   REMARKS
DAVENPORT      CLOUDY    54  50  86 N9        29.71R                  
IOWA CITY      MOSUNNY   59  51  75 VRB3      29.72F                  
MT. PLEASANT * SUNNY     57  52  85 N7        29.71F                  
MUSCATINE *    CLOUDY    57  50  77 VRB6      29.72R                  
QUAD CITIES    CLOUDY    56  50  80 N7        29.69R                  
$$
 
IAZ062-063-075>077-085>089-095>099-251500-
   SOUTHEAST IOWA
  
CITY           SKY/WX    TMP DP  RH WIND       PRES   REMARKS
BURLINGTON     SUNNY     58  53  84 NW7       29.70S                  
FAIRFIELD *    SUNNY     57  50  77 CALM      29.72S                  
FORT MADISON * SUNNY     57  54  88 N5        29.72S                  
KEOKUK *       SUNNY     57  52  82 VRB5      29.71S                  
OSKALOOSA *      N/A     57  51  81 CALM      29.73R                  
CENTERVILLE *    N/A     59  52  77 CALM      29.74S                  
OTTUMWA        SUNNY     58  52  80 CALM      29.72S                  
WASHINGTON *   SUNNY     57  52  82 N5        29.72F                  
$$

ABBREVIATIONS USED IN REMARKS
   TC - TEMPERATURES IN CELSIUS
  WCI - WIND CHILL INDEX
   HX - HEAT INDEX
  VSB - VISIBILITY  
$$

  

Return to Home page


Western Regional Climate Center, wrcc@dri.edu